Regional Weather Roundup
Issued by NWS Wakefield, VA

Home | Current Version | Previous Version | Text Only | Print | Product List | Glossary On
Versions: 1 2 3 4 5 6 7 8 9 10 11 12 13 14 15 16 17 18 19 20 21 22 23 24 25 26 27
000
ASUS41 KAKQ 272015
RWRAKQ

REGIONAL WEATHER ROUNDUP
NATIONAL WEATHER SERVICE WAKEFIELD VA
400 PM EDT THU JUL 27 2017

Note: "fair" indicates few or no clouds below 12,000 feet with no
significant weather and/or obstructions to visibility. * = Denotes
station may not report precipitation (e.g., rain,snow,etc.),
thunder or fog.

VAZ042-051-052>054-056-272100-
NORTHERN VIRGINIA

CITY           SKY/WX    TMP DP  RH WIND       PRES   REMARKS
WASH NATIONAL  CLOUDY    84  75  74 S9        29.89F
DULLES         CLOUDY    85  71  63 VRB6      29.89F
FORT BELVOIR   CLOUDY    85  73  65 S6        29.88F
QUANTICO       CLOUDY    85  77  77 S9        29.90F HX  95
FREDERICKSBRG* CLOUDY    85  75  72 SW6       29.89F
STAFFORD*      CLOUDY    83  74  74 CALM      29.94F
WARRENTON      CLOUDY    87  68  52 W8        29.90F
CULPEPER*      CLOUDY    87  72  60 SW9       29.90F
MANASSAS*      CLOUDY    87  72  60 W8        29.89F
LEESBURG*      CLOUDY    88  75  66 S5        29.91F HX  97
WINCHESTER     PTSUNNY   84  63  48 CALM      29.90F
FRONT ROYAL*   MOCLDY    88  68  51 SE6       29.89F
LURAY*         MOCLDY    84  68  58 S8        29.92F
$$

VAZ048-049-060>072-079>083-272100-
CENTRAL AND SOUTH CENTRAL VIRGINIA

CITY           SKY/WX    TMP DP  RH WIND       PRES   REMARKS
RICHMOND       CLOUDY    88  70  55 SW13      29.91F
CHESTERFIELD*  FAIR      90  72  55 SW10      29.92F HX  97
PETERSBURG*    PTSUNNY   89  66  46 CALM      29.92F
HANOVER        CLOUDY    87  70  56 SW10      29.92F
TAPPAHANNOCK*  CLOUDY    89  59  35 SW8       29.92S
QUINTON*       MOCLDY    90  72  54 SW7       29.90F HX  97
CHARLOTTSVILLE CLOUDY    85  72  65 SW8       29.91F
GORDONSVILLE*  CLOUDY    85  74  69 SW7       29.90F
ORANGE*        CLOUDY    84  72  65 SW5       29.91F
LOUISA*        CLOUDY    82  72  69 S3        29.91F
BUMPASS*       FAIR      83  74  73 SW5       29.91F
FARMVILLE*     CLOUDY    85  69  58 S6        29.93S
CREWE*         FAIR      87  65  47 SW6       29.93F
FORT PICKETT*  FAIR     N/A N/A N/A SW10      29.93F
CHASE CITY*    MOCLDY    86  71  60 CALM      29.95S
CLARKSVILLE*   FAIR      86  72  62 SW7       29.94F
SOUTH HILL*    CLOUDY    87  72  59 SW7       30.00F
LAWRENCEVILLE* FAIR      90  68  49 SW7       29.93F
EMPORIA*       CLOUDY    90  68  48 SW8       29.94F
$$

VAZ088>098-272100-
SOUTHEAST VIRGINIA

CITY           SKY/WX    TMP DP  RH WIND       PRES   REMARKS
NORFOLK        CLOUDY    90  70  51 SW14      29.93F HX  95
VIRGINIA BEACH PTSUNNY   86  70  58 SW12      29.93F
NORFOLK NAVAL  CLOUDY    88  70  55 SW10G25   29.94F
WEST POINT*    CLOUDY    90  67  46 S9G16     29.91F
SALUDA*        FAIR      88  74  63 S7        29.91F HX  96
NEWPORT NEWS   CLOUDY    88  70  55 S13       29.92F
LANGLEY AFB    PTSUNNY   88  72  58 SW17      29.92F HX  95
FORT EUSTIS    CLOUDY    90  73  56 S8        29.90F HX  98
WILLIAMSBURG*  CLOUDY    91  72  52 S8        29.92F HX  98
HR EXEC AP*    FAIR      88  72  58 SW9       29.91F
FRANKLIN*      CLOUDY    88  72  58 SW7       29.94F
US460-WAKEFLD  CLOUDY    89  73  59 S10       29.92F HX  97
$$

VAZ020-022-025-037-045-272100-
WEST CENTRAL AND SOUTHWEST VIRGINIA

CITY           SKY/WX    TMP DP  RH WIND       PRES   REMARKS
STAUNTON*      CLOUDY    80  67  64 SW13G23   29.97F
WAYNESBORO*    CLOUDY    77  71  83 SW7       29.98F
HOT SPRINGS VA DRZL/FOG  66  64  94 W10G17    30.10F VSB 1/2
LYNCHBURG      HVY RAIN  70  69  97 W9        30.00F FOG
DANVILLE       CLOUDY    85  75  72 W10       29.96F
SOUTH BOSTON*  FAIR      87  70  56 SW10      29.95S
MARTINSVILLE   CLOUDY    82  71  71 CALM      30.01S
ROANOKE        CLOUDY    77  69  76 SE6       30.02R
BLACKSBURG     LGT RAIN  72  68  87 W3        30.08F
DUBLIN*        LGT RAIN  73  65  74 CALM      30.08S
MARION*        LGT RAIN  74  64  70 W8        30.11S
HILLSVILLE*    CLOUDY    72  66  82 CALM      30.08F
RICHLANDS*     CLOUDY    69  63  80 CALM      30.12F
WISE*          HVY RAIN  70  70 100 W6        30.14R
ABINGDON*      CLOUDY    79  74  84 N3        30.07S
$$

MDZ021>025-VAZ099-100-272100-
SOUTHERN MARYLAND AND THE DELMARVA PENINSULA

CITY           SKY/WX    TMP DP  RH WIND       PRES   REMARKS
PATUXENT RIVER CLOUDY    82  73  74 S8        29.91F
BAY BRIDGE APT PTSUNNY   84  73  70 S10       29.90F
LEONARDTOWN    CLOUDY    81  72  74 SW3       29.93S
DOVER          CLOUDY    82  82 100 S7        29.89F HX  97
GEORGETOWN     CLOUDY    82  71  69 S9        29.92F
EASTON         CLOUDY    82  72  69 S6        29.95F
CAMBRIDGE      PTSUNNY   81  73  78 VRB5      29.92S
SALISBURY      CLOUDY    81  72  74 S9        29.92F
OCEAN CITY     CLOUDY    77  70  79 S9        29.94F
WALLOPS ISLAND CLOUDY    79  71  76 S17G24    29.94F
ACCOMACK*      CLOUDY    82  70  68 S12       29.93F
$$

NCZ012>017-030>032-272100-
NORTH CENTRAL AND EASTERN NORTH CAROLINA

CITY           SKY/WX    TMP DP  RH WIND       PRES   REMARKS
ROANOKE RAPIDS FAIR      90  68  48 SW12G18   29.94F
RALEIGH        CLOUDY    90  69  50 W9        29.95F
ELIZABETH CITY MOSUNNY   86  73  65 S9G20     29.96F
AHOSKIE*         N/A     84  74  70 S3        29.96F
EDENTON*       MOSUNNY   89  73  59 SW8       29.97F HX  96
CURRITUCK*     MOSUNNY   87  70  57 S5        29.97S
KILL DEVIL HLS MOSUNNY   85  69  59 S3        29.96F
MANTEO         CLOUDY    82  69  65 S12       29.97F
CAPE HATTERAS  SUNNY     86  71  60 SW8       29.99F
TARBORO*       NOT AVBL
GOLDSBORO      PTSUNNY   91  66  42 SW6       29.95F
WASHINGTON     CLOUDY    88  68  51 SW7       29.97S
GREENVILLE     PTSUNNY   90  68  48 SW6       29.98S
NEW BERN       MOSUNNY   88  69  53 S9        29.99S
WILMINGTON     SUNNY     87  70  56 SE9       29.98F
$$

VAZ048-272100-
ELSEWHERE

CITY           SKY/WX    TMP DP  RH WIND       PRES   REMARKS
HARRISBURG PA  CLOUDY    81  72  74 SE6       29.90F
BALTIMORE      CLOUDY    84  72  67 S6        29.89F
ANNAPOLIS      PTSUNNY   83  77  82 S8        29.90F
ANDREWS AFB    CLOUDY    82  72  72 S7        29.89F
PHILADELPHIA   CLOUDY    80  70  71 VRB3      29.92F
HENDERSON NC   CLOUDY    84  67  56 SW10      29.96F
GREENSBORO     CLOUDY    85  73  67 W12       29.98F
ROCKY MOUNT    MOSUNNY   90  70  51 SW8       29.95F HX  95
$$

VAZ100-272100-
MARINE

STATION/POSITION TIME  TEMP    WIND        PRES    WAVE   SWELL
                       AIR SEA DIR/SP/G            HT/PER HT/PER
                 (UTC) (F)     (DEG/KT/KT) (MB)    (FT/S) (FT/S)
BRANDYWINE LGT   1942   75     180/ 17/ 19 1013.4F
CAPE MAY NJ      1948   76 76  160/ 10/ 14 1012.9F
LEWES DE         1948   79 75  170/ 10/ 13 1012.8F
15NM E FENWICK I 1950   77 77  190/ 14/ 17 1014.2F   3/ 4   2/ 8
OCEAN-CITY-INLET 1948   74 73  210/ 10/ 12 1014.1F
WACHAPREAGUE VA  1948   78 83  140/ 12/ 15 1013.7F
THOMAS POINT MD  2000   80 82  180/ 13/ 14   N/A
GOOSES REEF MD   2000   82 82  160/  8/ 10 1013.5    1/ 3
COVE POINT MD    1948   82     210/  7/  9 1013.4F
SOLOMONS ISLAND  1942   83 83  200/  6/  7   N/A
BISHOPS HEAD MD  1948   81 81  180/ 13/ 14 1013.1F
PINEY POINT MD   1942          240/  5/  8   N/A
CAMBRIDGE MD     1942   82 85              1013.9F
LEWISETTA VA     1948   84 83  220/  4/  5 1012.8F
RAPPAHANNOCK LGT 1948          160/ 15/ 17 1013.8F
STINGRAY PT      2000   82 83  180/ 14/ 16 1013.2    1/ 2
YORK RVR RNG VA  1948   85     230/ 13/ 16 1013.3F
YORKTOWN VA      1948   86 82  220/ 14/ 17 1012.7F
JAMESTOWN VA     2000      85  190/  8/ 10   N/A     0
DOMINION TERM VA 1948   84     230/  8/ 10 1013.6F
KIPTOPEKE VA     1936      74  160/ 10/ 12   N/A
CHES BAY BRIDGE  1948   83 69  220/  8/ 11 1013.5F
CAPE HENRY VA    1948   85     200/  6/  9   N/A
WILLOUBY STN VA  1948   84     230/ 11/ 13 1013.5F
S CRANEY ISL VA  1948   86     200/  9/ 14 1013.5F
CAPE HENRY BUOY  2000      74                N/A     2/ 9
1ST LANDING BUOY 2000   82 77              1013.3    1/ 3
64NM E OF VA BCH 1950   78 79  190/ 10/ 10 1015.5F   2/ 7   2/ 7
DUCK PIER NC     1948   80 73  160/  7/  9 1014.2F
44100 DUCK FRF   1905      75                N/A     2/ 7
44056 DUCK FRF   2000      75                N/A     2/ 6
OREGON INLET NC  1936   81 80  180/ 12/ 15 1015.1F
HATTERAS NC      1948   84 79  190/  4/ 10 1015.6F
DIAMOND SHLS NC  1950   82 86  190/  8/ 10 1015.7F   3/ 8   3/ 8
CAPE LOOKOUT NC  2000   82     170/ 11/ 12 1015.3F
$$




USA.gov is the U.S. government's official web portal to all federal, state and local government web resources and services.